Tracking 29033 objects as of 22-Jun-2024
HD Live streaming from Space Station
objects crossing your sky now

OBJECT Q

Track OBJECT Q now!
10-day predictions


NORAD ID: 59065
Int'l Code: 2024-039Q
Perigee: 485.2 km
Apogee: 504.7 km
Inclination: 97.4 °
Period: 94.4 minutes
Semi major axis: 6865 km
RCS: Unknown
Launch date: February 29, 2024
Source: (TBD)
Launch site: VOSTOCHNY COSMODROME (VOSTO)

Note: This is a ROCKET BODY
Your satellite tracking list
Your tracking list is empty




NASA's NSSDC Master Catalog

Two Line Element Set (TLE):
1 59065U 24039Q   24174.15437402  .00006587  00000-0  25836-3 0  9990
2 59065  97.3938 136.0895 0014225 182.8394 177.2766 15.25992688 17332
Source of the keplerian elements: AFSPC